�������l�o���
Date,Time,MP-1(��Sv/h),MP-2(��Sv/h),MP-3(��Sv/h),MP-4(��Sv/h),MP-5(��Sv/h),MP-6(��Sv/h),MP-7(��Sv/h),MP-8(��Sv/h),����,����(m/s),���J
2020/12/08,00:00,0.671,0.959,0.610,1.210,0.853,0.384,0.677,0.635,��쐼,1.2,��
2020/12/08,00:10,0.670,0.961,0.612,1.210,0.853,0.383,0.675,0.636,��,0.8,��
2020/12/08,00:20,0.671,0.961,0.611,1.211,0.853,0.384,0.675,0.635,�쐼,1.2,��
2020/12/08,00:30,0.671,0.960,0.612,1.210,0.853,0.385,0.678,0.634,��,1.2,��
2020/12/08,00:40,0.669,0.959,0.609,1.212,0.854,0.383,0.679,0.634,��쐼,1.7,��
2020/12/08,00:50,0.672,0.960,0.612,1.212,0.853,0.385,0.676,0.635,��쐼,2.0,��
2020/12/08,01:00,0.670,0.961,0.610,1.208,0.853,0.385,0.677,0.636,��,2.0,��
2020/12/08,01:10,0.670,0.960,0.611,1.212,0.853,0.383,0.677,0.635,��쓌,3.0,��
2020/12/08,01:20,0.670,0.959,0.609,1.208,0.853,0.384,0.677,0.635,��쓌,3.0,��
2020/12/08,01:30,0.670,0.960,0.612,1.210,0.853,0.383,0.675,0.635,��,3.8,��
2020/12/08,01:40,0.669,0.958,0.611,1.211,0.851,0.386,0.675,0.636,��,3.4,��
2020/12/08,01:50,0.672,0.962,0.611,1.212,0.853,0.385,0.676,0.635,��,4.1,��
2020/12/08,02:00,0.671,0.958,0.611,1.211,0.854,0.383,0.674,0.636,��,4.3,��
2020/12/08,02:10,0.669,0.963,0.609,1.213,0.854,0.384,0.678,0.635,��쐼,3.2,��
2020/12/08,02:20,0.672,0.959,0.612,1.211,0.853,0.385,0.675,0.636,��,2.6,��
2020/12/08,02:30,0.670,0.959,0.612,1.211,0.854,0.383,0.677,0.634,��쐼,4.5,��
2020/12/08,02:40,0.671,0.959,0.612,1.210,0.853,0.384,0.675,0.635,��쐼,4.3,��
2020/12/08,02:50,0.671,0.959,0.612,1.211,0.852,0.383,0.676,0.636,�쐼,3.9,�L
2020/12/08,03:00,0.670,0.961,0.611,1.212,0.851,0.385,0.676,0.635,�쐼,3.1,��
2020/12/08,03:10,0.670,0.959,0.611,1.210,0.853,0.385,0.676,0.634,���쐼,2.6,�L
2020/12/08,03:20,0.672,0.963,0.611,1.209,0.855,0.385,0.675,0.634,��,3.8,��
2020/12/08,03:30,0.671,0.961,0.610,1.213,0.853,0.384,0.676,0.635,��,4.5,��
2020/12/08,03:40,0.672,0.961,0.612,1.209,0.852,0.385,0.677,0.636,��,4.1,��
2020/12/08,03:50,0.672,0.962,0.612,1.212,0.855,0.382,0.676,0.635,��,6.2,��
2020/12/08,04:00,0.671,0.959,0.611,1.210,0.852,0.384,0.676,0.634,��,4.6,��
2020/12/08,04:10,0.671,0.958,0.610,1.212,0.853,0.384,0.677,0.634,��,3.2,��
2020/12/08,04:20,0.671,0.962,0.612,1.212,0.851,0.384,0.675,0.635,���k��,2.9,��
2020/12/08,04:30,0.669,0.959,0.612,1.211,0.853,0.385,0.675,0.635,�k��,2.3,��
2020/12/08,04:40,0.671,0.958,0.612,1.210,0.853,0.383,0.676,0.634,�k��,2.3,��
2020/12/08,04:50,0.671,0.960,0.613,1.209,0.852,0.383,0.677,0.635,���k��,2.2,��
2020/12/08,05:00,0.671,0.960,0.609,1.212,0.852,0.385,0.675,0.634,��,1.5,��
2020/12/08,05:10,0.668,0.959,0.611,1.211,0.853,0.384,0.676,0.634,��,2.9,��
2020/12/08,05:20,0.670,0.958,0.611,1.210,0.851,0.383,0.674,0.634,���쐼,3.4,��
2020/12/08,05:30,0.668,0.961,0.610,1.213,0.854,0.385,0.676,0.635,�쐼,3.0,��
2020/12/08,05:40,0.669,0.959,0.611,1.211,0.855,0.384,0.677,0.635,�쐼,2.3,��
2020/12/08,05:50,0.670,0.960,0.613,1.210,0.851,0.384,0.677,0.634,��쐼,1.9,��
2020/12/08,06:00,0.672,0.961,0.611,1.209,0.852,0.384,0.674,0.634,�쐼,1.2,��
2020/12/08,06:10,0.669,0.959,0.610,1.211,0.852,0.383,0.674,0.635,���쓌,1.2,��
2020/12/08,06:20,0.670,0.957,0.612,1.209,0.852,0.383,0.675,0.635,�k�k��,1.2,��
2020/12/08,06:30,0.669,0.958,0.611,1.209,0.852,0.384,0.675,0.636,���k��,0.6,��
2020/12/08,06:40,0.669,0.959,0.610,1.211,0.851,0.384,0.676,0.634,�k��,1.9,��
2020/12/08,06:50,0.669,0.958,0.612,1.208,0.852,0.384,0.674,0.637,���k��,3.9,��
2020/12/08,07:00,0.669,0.959,0.610,1.210,0.852,0.383,0.673,0.633,���k��,3.2,��
2020/12/08,07:10,0.669,0.956,0.611,1.208,0.849,0.384,0.675,0.635,���k��,5.6,��
2020/12/08,07:20,0.669,0.957,0.611,1.208,0.851,0.385,0.675,0.636,���k��,6.5,��
2020/12/08,07:30,0.670,0.959,0.612,1.211,0.853,0.383,0.676,0.635,���k��,8.1,��
2020/12/08,07:40,0.669,0.958,0.609,1.210,0.851,0.383,0.675,0.636,�k��,6.4,��
2020/12/08,07:50,0.670,0.960,0.610,1.212,0.851,0.383,0.675,0.635,�k��,6.3,��
2020/12/08,08:00,0.669,0.958,0.611,1.211,0.853,0.384,0.677,0.634,�k��,3.8,��
2020/12/08,08:10,0.670,0.959,0.610,1.212,0.851,0.383,0.676,0.635,�k��,6.0,��
2020/12/08,08:20,0.669,0.959,0.610,1.212,0.849,0.382,0.677,0.634,�k��,5.4,��
2020/12/08,08:30,0.670,0.955,0.612,1.210,0.851,0.383,0.676,0.635,�k�k��,5.6,��
2020/12/08,08:40,0.671,0.956,0.606,1.211,0.852,0.384,0.676,0.635,�k��,4.6,��
2020/12/08,08:50,0.670,0.957,0.605,1.212,0.850,0.382,0.677,0.634,�k��,3.6,��
2020/12/08,09:00,0.671,0.958,0.603,1.211,0.853,0.383,0.677,0.636,���k��,2.9,��
2020/12/08,09:10,0.671,0.954,0.604,1.210,0.853,0.383,0.677,0.635,�k��,4.4,��
2020/12/08,09:20,0.672,0.956,0.604,1.209,0.851,0.382,0.676,0.635,�k��,4.6,��
2020/12/08,09:30,0.670,0.958,0.605,1.211,0.853,0.380,0.675,0.636,�k��,5.3,��
2020/12/08,09:40,0.671,0.957,0.612,1.206,0.853,0.381,0.674,0.636,�k��,4.7,��
2020/12/08,09:50,0.671,0.957,0.612,1.202,0.854,0.383,0.673,0.634,�k��,6.1,��
2020/12/08,10:00,0.673,0.958,0.613,1.204,0.856,0.382,0.674,0.635,�k�k��,6.2,��
2020/12/08,10:10,0.670,0.958,0.613,1.207,0.856,0.381,0.673,0.636,�k�k��,8.5,��
2020/12/08,10:20,0.671,0.959,0.613,1.210,0.856,0.382,0.675,0.635,�k�k��,7.8,��
2020/12/08,10:30,-,0.959,0.612,1.204,0.851,0.383,0.675,0.638,�k�k��,7.7,��
2020/12/08,10:40,-,0.957,0.612,1.205,0.845,0.383,0.675,0.636,�k�k��,6.1,��
2020/12/08,10:50,-,0.957,0.612,1.207,0.847,0.382,0.675,0.638,�k,6.7,��
2020/12/08,11:00,-,0.955,0.610,1.207,0.846,0.383,0.675,0.637,�k,6.2,��
2020/12/08,11:10,-,0.954,0.613,1.209,0.854,0.381,0.675,0.638,�k�k��,5.5,��
2020/12/08,11:20,-,0.956,0.612,1.211,0.853,0.383,0.674,0.636,�k,5.0,��
2020/12/08,11:30,-,0.952,0.611,1.208,0.855,0.382,0.675,0.636,�k,4.2,��
2020/12/08,11:40,-,0.957,0.614,1.210,0.853,0.384,0.674,0.636,�k�k��,3.8,��
2020/12/08,11:50,-,0.958,0.611,1.214,0.853,0.384,0.674,0.637,�k,4.8,��
2020/12/08,12:00,-,0.960,0.612,1.209,0.855,0.383,0.674,0.636,�k�k��,6.1,��
2020/12/08,12:10,-,0.960,0.608,1.210,0.857,0.383,0.675,0.636,�k,4.9,�L
2020/12/08,12:20,-,0.960,0.613,1.212,0.855,0.383,0.677,0.636,�k,4.5,�L
2020/12/08,12:30,0.672,0.963,0.611,1.213,0.855,0.385,0.675,0.636,�k�k��,3.5,�L
2020/12/08,12:40,0.671,0.962,0.612,1.213,0.855,0.383,0.675,0.637,�k��,5.3,�L
2020/12/08,12:50,0.670,0.962,0.614,1.217,0.852,0.384,0.675,0.636,�k��,6.2,��
2020/12/08,13:00,0.672,0.963,0.613,1.212,0.856,0.384,0.674,0.637,�k��,8.0,�L
2020/12/08,13:10,0.673,0.961,0.613,1.214,0.857,0.384,0.674,0.637,�k��,6.3,��
2020/12/08,13:20,0.672,0.957,0.612,1.214,0.856,0.383,0.675,0.637,�k��,5.3,��
2020/12/08,13:30,0.674,0.959,0.613,1.216,0.855,0.382,0.675,0.636,�k�k��,6.4,��
2020/12/08,13:40,0.672,0.961,0.613,1.215,0.856,0.382,0.674,0.636,�k�k��,6.1,��
2020/12/08,13:50,0.672,0.960,0.614,1.214,0.855,0.384,0.676,0.637,�k�k��,4.6,�L
2020/12/08,14:00,0.670,0.961,0.612,1.213,0.856,0.384,0.677,0.637,�k�k��,5.0,�L
2020/12/08,14:10,0.671,0.963,0.613,1.212,0.855,0.383,0.676,0.638,�k��,6.2,��
2020/12/08,14:20,0.672,0.962,0.614,1.213,0.856,0.384,0.675,0.638,�k��,7.1,��
2020/12/08,14:30,0.672,0.963,0.613,1.213,0.855,0.384,0.675,0.636,�k��,7.7,��
2020/12/08,14:40,0.670,0.963,0.612,1.214,0.856,0.383,0.675,0.637,�k��,7.0,��
2020/12/08,14:50,0.672,0.962,0.613,1.213,0.856,0.382,0.675,0.637,�k��,5.9,��
2020/12/08,15:00,0.672,0.962,0.612,1.213,0.855,0.383,0.675,0.637,�k��,7.2,��
2020/12/08,15:10,0.671,0.961,0.611,1.213,0.855,0.384,0.676,0.636,�k��,4.1,��
2020/12/08,15:20,0.671,0.963,0.612,1.212,0.855,0.383,0.676,0.637,�k��,5.6,��
2020/12/08,15:30,0.671,0.963,0.613,1.212,0.855,0.383,0.674,0.637,���k��,5.7,��
2020/12/08,15:40,0.671,0.965,0.610,1.214,0.854,0.384,0.675,0.635,�k��,5.5,��
2020/12/08,15:50,0.671,0.961,0.613,1.214,0.855,0.383,0.674,0.636,�k��,4.4,��
2020/12/08,16:00,0.671,0.963,0.613,1.212,0.854,0.383,0.673,0.636,�k��,4.9,��
2020/12/08,16:10,0.671,0.963,0.612,1.213,0.854,0.381,0.675,0.636,�k��,6.1,��
2020/12/08,16:20,0.671,0.965,0.613,1.214,0.855,0.384,0.675,0.637,�k�k��,5.2,��
2020/12/08,16:30,0.672,0.964,0.614,1.213,0.855,0.383,0.675,0.636,�k�k��,5.7,��
2020/12/08,16:40,0.670,0.966,0.612,1.215,0.853,0.382,0.675,0.635,�k��,6.3,��
2020/12/08,16:50,0.670,0.964,0.613,1.214,0.854,0.383,0.676,0.636,�k��,5.8,��
2020/12/08,17:00,0.670,0.963,0.611,1.213,0.855,0.383,0.677,0.637,�k��,8.2,��
2020/12/08,17:10,0.670,0.965,0.611,1.214,0.856,0.384,0.677,0.636,�k��,10.2,��
2020/12/08,17:20,0.669,0.963,0.612,1.213,0.856,0.383,0.677,0.635,�k�k��,9.5,��
2020/12/08,17:30,0.673,0.964,0.612,1.213,0.857,0.383,0.676,0.634,�k�k��,10.2,��
2020/12/08,17:40,0.672,0.964,0.612,1.216,0.855,0.384,0.678,0.635,�k��,8.0,��
2020/12/08,17:50,0.671,0.964,0.611,1.213,0.855,0.384,0.676,0.637,�k��,7.4,��
2020/12/08,18:00,0.671,0.962,0.613,1.215,0.855,0.381,0.677,0.635,�k�k��,6.1,��
2020/12/08,18:10,0.672,0.964,0.612,1.214,0.854,0.382,0.678,0.637,�k�k��,7.1,��
2020/12/08,18:20,0.672,0.962,0.611,1.212,0.855,0.383,0.677,0.636,�k�k��,5.6,��
2020/12/08,18:30,0.671,0.961,0.613,1.213,0.853,0.384,0.677,0.636,�k�k��,4.2,��
2020/12/08,18:40,0.671,0.965,0.611,1.214,0.854,0.381,0.677,0.635,�k�k��,2.6,��
2020/12/08,18:50,0.671,0.963,0.612,1.213,0.854,0.382,0.676,0.637,�k�k��,3.4,��
2020/12/08,19:00,0.670,0.962,0.612,1.214,0.854,0.383,0.674,0.636,�k�k��,4.2,��
2020/12/08,19:10,0.671,0.964,0.612,1.212,0.854,0.383,0.676,0.636,�k,5.1,��
2020/12/08,19:20,0.670,0.966,0.612,1.213,0.855,0.381,0.676,0.635,�k�k��,5.5,��
2020/12/08,19:30,0.672,0.965,0.612,1.215,0.854,0.381,0.677,0.636,�k�k��,6.5,��
2020/12/08,19:40,0.672,0.965,0.610,1.213,0.855,0.383,0.676,0.636,�k�k��,6.2,��
2020/12/08,19:50,0.669,0.964,0.611,1.213,0.855,0.383,0.674,0.635,�k�k��,5.9,��
2020/12/08,20:00,0.671,0.966,0.611,1.214,0.854,0.384,0.676,0.636,�k�k��,5.1,��
2020/12/08,20:10,0.670,0.963,0.610,1.211,0.855,0.383,0.675,0.635,�k�k��,5.3,��
2020/12/08,20:20,0.669,0.965,0.612,1.214,0.856,0.383,0.676,0.637,�k�k��,5.3,��
2020/12/08,20:30,0.670,0.962,0.611,1.214,0.854,0.382,0.676,0.635,�k��,3.8,��
2020/12/08,20:40,0.669,0.966,0.611,1.213,0.855,0.382,0.675,0.634,�k��,4.9,��
2020/12/08,20:50,0.672,0.964,0.611,1.214,0.855,0.382,0.677,0.636,�k��,5.5,��
2020/12/08,21:00,0.671,0.963,0.612,1.214,0.855,0.383,0.676,0.636,�k��,5.0,��
2020/12/08,21:10,0.672,0.964,0.611,1.215,0.856,0.382,0.676,0.635,�k��,4.5,��
2020/12/08,21:20,0.672,0.965,0.612,1.215,0.855,0.383,0.676,0.636,�k��,4.6,��
2020/12/08,21:30,0.672,0.964,0.612,1.214,0.855,0.383,0.675,0.636,�k��,4.1,��
2020/12/08,21:40,0.670,0.965,0.612,1.215,0.854,0.382,0.675,0.635,�k��,3.5,��
2020/12/08,21:50,0.669,0.963,0.611,1.215,0.855,0.383,0.675,0.635,�k��,3.9,��
2020/12/08,22:00,0.671,0.963,0.611,1.213,0.852,0.382,0.675,0.636,�k��,3.9,��
2020/12/08,22:10,0.672,0.967,0.611,1.214,0.853,0.382,0.676,0.636,�k��,2.6,��
2020/12/08,22:20,0.672,0.964,0.612,1.214,0.857,0.384,0.676,0.635,�k�k��,3.2,��
2020/12/08,22:30,0.671,0.965,0.611,1.215,0.853,0.383,0.676,0.634,�k��,2.3,��
2020/12/08,22:40,0.670,0.964,0.611,1.213,0.854,0.382,0.676,0.636,�k��,2.0,��
2020/12/08,22:50,0.672,0.964,0.614,1.214,0.855,0.383,0.675,0.636,���k��,3.2,��
2020/12/08,23:00,0.673,0.963,0.612,1.215,0.856,0.382,0.675,0.635,���k��,2.9,��
2020/12/08,23:10,0.673,0.965,0.611,1.213,0.854,0.383,0.676,0.635,���k��,3.9,��
2020/12/08,23:20,0.670,0.964,0.613,1.213,0.856,0.383,0.677,0.636,���k��,4.2,��
2020/12/08,23:30,0.671,0.963,0.612,1.217,0.856,0.383,0.677,0.636,���k��,5.1,��
2020/12/08,23:40,0.671,0.964,0.612,1.212,0.853,0.384,0.675,0.635,�k��,5.3,��
2020/12/08,23:50,0.668,0.964,0.611,1.214,0.853,0.384,0.674,0.634,���k��,5.1,��
